This is the latest recevied weather packets stored in our database for station/object HK4RAU-15. If no packets are shown the sender has not sent any weather packets the latest 10 day(s).
| Time | Temp. | Humidity | Pressure | Rain* | Wind** | Luminosity | Snow |
|---|---|---|---|---|---|---|---|
| 1778260245 | 27.78° C | 64% | 1010 hPa | 0 mm | - | - | - |
| 1778260052 | 27.78° C | 64% | 1010 hPa | 0 mm | - | - | - |
| 1778259864 | 27.78° C | 64% | 1010 hPa | 0 mm | - | - | - |
| 1778259683 | 27.78° C | 64% | 1010 hPa | 0 mm | - | - | - |
| 1778259501 | 27.78° C | 64% | 1010 hPa | 0 mm | - | - | - |
| 1778259315 | 27.78° C | 65% | 1010 hPa | 0 mm | - | - | - |
| 1778259133 | 27.78° C | 64% | 1010 hPa | 0 mm | - | - | - |
| 1778258947 | 27.78° C | 65% | 1010 hPa | 0 mm | - | - | - |
| 1778258758 | 27.78° C | 65% | 1010 hPa | 0 mm | - | - | - |
| 1778258567 | 27.78° C | 65% | 1010 hPa | 0 mm | - | - | - |
| 1778258385 | 27.78° C | 65% | 1010 hPa | 0 mm | - | - | - |
| 1778258194 | 25.56° C | 79% | 1011 hPa | 0 mm | - | - | - |
| 1778258001 | 27.78° C | 69% | 1010 hPa | 0 mm | - | - | - |
| 1778257818 | 27.78° C | 69% | 1010 hPa | 0 mm | - | - | - |
| 1778257631 | 25.56° C | 79% | 1011 hPa | 0 mm | - | - | - |
| 1778257443 | 26.11° C | 79% | 1011 hPa | 0 mm | - | - | - |
| 1778257245 | 26.11° C | 79% | 1011 hPa | 0 mm | - | - | - |
| 1778257059 | 26.67° C | 79% | 1011 hPa | 0 mm | - | - | - |
| 1778256868 | 26.11° C | 79% | 1011 hPa | 0 mm | - | - | - |
| 1778256681 | 26.67° C | 79% | 1011 hPa | 0 mm | - | - | - |
| 1778256500 | 26.67° C | 79% | 1011 hPa | 0 mm | - | - | - |
| 1778256316 | 26.67° C | 79% | 1011 hPa | 0 mm | - | - | - |
| 1778256129 | 27.22° C | 79% | 1011 hPa | 0 mm | - | - | - |
| 1778255942 | 27.22° C | 79% | 1011 hPa | 0 mm | - | - | - |
| 1778255756 | 27.78° C | 79% | 1011 hPa | 0 mm | - | - | - |
* Rain latest hour (hover to see other rain measurements)
** Current wind speed in m/s (hover to see current wind gust speed)